User: anonymous   Login
Location: Nashville
(36.1660°N, 86.7840°W)
Time: 13:43:52
(UTC-05:00)
Language:

LilacSat-2 - Orbit

View from above orbital plane
View from above orbital plane
View from above satellite
View from above satellite

Ground track
Ground track

The orbit data is extracted from the following two-line orbital elements,

1 40908U 15049K   22137.53005742  .00003931  00000-0  20992-3 0  9992
2 40908  97.5156 138.4249 0016887 120.1066 338.9649 15.15587503367809
Epoch (UTC): 17 May 2022 12:43:16
Eccentricity: 0.0016887
inclination: 97.5156°
perigee height: 507 km
apogee height: 531 km
right ascension of ascending node: 138.4249°
argument of perigee: 120.1066°
revolutions per day: 15.15587503
mean anomaly at epoch: 338.9649°
orbit number at epoch: 36780

The dashed part of the orbit path shows where the satellite is in the earth's shadow,  

DLR